Regional Weather Roundup
Issued by NWS

Home | Current Version | Previous Version | Graphics & Text | Print | Product List | Glossary On
Versions: 1 2 3 4 5 6 7 8 9 10 11 12 13 14 15 16 17 18 19 20 21 22 23 24 25 26 27 28 29 30 31 32 33 34 35 36 37 38 39 40 41 42 43 44 45 46 47 48 49 50
000
ASUS43 KMPX 201310
RWRMN
WEATHER ROUNDUP FOR MINNESOTA
NATIONAL WEATHER SERVICE TWIN CITIES/CHANHASSEN MN
800 AM CDT WED SEP 20 2017


NOTE: "FAIR" INDICATES FEW OR NO CLOUDS BELOW 12,000 FEET WITH NO
SIGNIFICANT WEATHER AND/OR OBSTRUCTIONS TO VISIBILITY. N/A MEANS
CURRENT SKY AND/OR WEATHER CONDITIONS ARE NOT AVAILABLE.

MNZ060>063-068>070-201400-
   Twin Cities Metro

CITY           SKY/WX    TMP DP  RH WIND       PRES   REMARKS
TWIN CITIES    PTSUNNY   70  67  90 SW6       29.65R
ST PAUL        CLOUDY    70  68  93 SE8       29.65R
CRYSTAL        PTCLDY    68  64  87 S7        29.63R
BLAINE         PTSUNNY   72  70  94 S8        29.64R
LAKEVILLE      CLOUDY    70  70 100 S5        29.66R
EDEN PRAIRIE   CLEAR     66  64  93 S6        29.65R
SOUTH ST PAUL  CLOUDY    70  69  94 S9        29.65R
LAKE ELMO      CLOUDY    70  66  88 S7        29.67R
$$
MNZ001>005-007-008-013>017-022>024-027-028-201400-
   Northwest Minnesota

CITY           SKY/WX    TMP DP  RH WIND       PRES   REMARKS
BEMIDJI        CLOUDY    57  55  92 W12       29.63R
HALLOCK        CLOUDY    52  50  93 SW6       29.57R
ROSEAU         MOCLDY    55  52  88 W7        29.55R
WARROAD        CLOUDY    55  52  88 W14G20    29.54R
THIEF RVR FALL CLOUDY    54  51  90 W10       29.62R
CROOKSTON      CLOUDY    54  52  94 SW6       29.63R
FOSSTON        CLOUDY    54  52  94 SW13      29.63R
DETROIT LAKES  MOCLDY    54  50  87 W13       29.68R
MOORHEAD       CLOUDY    52  48  87 W7        29.68R
PARK RAPIDS    CLOUDY    58  55  90 W8        29.63R
MAHNOMEN       FAIR      54  50  87 W14       29.66R
$$
MNZ006-009>011-018-025>026-201400-
   North Central Minnesota

CITY           SKY/WX    TMP DP  RH WIND       PRES   REMARKS
BAUDETTE       LGT RAIN  61  60  97 W16G24    29.53R
FLAG ISLAND    LGT RAIN  57  55  94 W16G29    29.50R
INTL FALLS     CLOUDY    63  60  90 S8G23     29.55R
WASKISH        DRIZZLE   61  61 100 SW12G22   29.58R
BIG FORK       CLOUDY    63  61  94 S9G16     29.60R
LONGVILLE      CLOUDY    61  61 100 SW7       29.63R
GRAND RAPIDS   CLOUDY    61  60  97 S13       29.62R
CRANE LAKE     PTSUNNY   59  59 100 SE5       29.60S
ORR            CLOUDY    61  57  88 S12G18    29.58R
COOK           LGT RAIN  61  61 100 SE8       29.61S
WALKER         CLOUDY    58  56  94 SW5       29.62R
$$
MNZ012-019>021-037-201400-
   Northeast Minnesota

CITY           SKY/WX    TMP DP  RH WIND       PRES   REMARKS
DULUTH         CLOUDY    61  61 100 SE16      29.66S
ELY            CLOUDY    59  59 100 SE18      29.64R
HIBBING        LGT RAIN  60  59  96 SE9       29.62S FOG
EVELETH        LGT RAIN  60  59  96 SE8       29.65R
DULUTH HARBOR  CLOUDY    63  61  94 CALM      29.65S
TWO HARBORS    LGT RAIN  64  59  82 E7        29.66S
SILVER BAY     CLOUDY    61  59  94 E7        29.69R
GRAND MARAIS     N/A     59  58  96 NE13      29.74R
G MARAIS ARPRT   N/A     55  52  88 E13G25    29.76S FOG
$$
MNZ029>031-032-039>041-046>048-054>057-064-201400-
   West Central Minnesota

CITY           SKY/WX    TMP DP  RH WIND       PRES   REMARKS
FERGUS FALLS   CLOUDY    54  54 100 W9        29.70R
WHEATON        CLOUDY    55  48  76 W7        29.73R
MORRIS         CLOUDY    57  55  94 NW10      29.70R
ALEXANDRIA     MOCLDY    57  54  89 W17G24    29.71R
ELBOW LAKE     FAIR      55  52  92 NW7       29.71R
WADENA         CLOUDY    55  55 100 CALM      29.64S
GLENWOOD       PTCLDY    57  55  94 W15G21    29.70R
APPLETON       CLOUDY    59  54  82 W10       29.71R
BENSON         CLOUDY    59  55  88 NW7       29.71S
ORTONVILLE     CLOUDY    55  52  88 W10       29.71R
MADISON        CLOUDY    59  57  94 W9        29.73R
WILLMAR        FAIR      59  57  94 W9        29.72R
$$
MNZ033>034-036-042>043-049>051-058-059-201400-
   Central Minnesota

CITY           SKY/WX    TMP DP  RH WIND       PRES   REMARKS
ST CLOUD       CLOUDY    62  62 100 W12       29.66R
SAUK CENTRE    PTSUNNY   58  55  91 W9        29.68R
PAYNESVILLE    MOCLDY    60  58  96 W14G21    29.70R
AITKIN         CLOUDY    63  61  94 W9G16     29.62R FOG
PINE RIVER     CLOUDY    57  55  94 W3        29.68R
BRAINERD       CLOUDY    61  60  97 SW10      29.65R
STAPLES        CLOUDY    57  57 100 W9        29.68R
LONG PRAIRIE   FAIR      55  54  94 SW8       29.68R
LITTLE FALLS   MOCLDY    59  57  94 W6        29.65R
LITCHFIELD     CLEAR     61  61 100 W12G20    29.68R
BUFFALO        CLOUDY    63  60  91 S5        29.67R
MAPLE LAKE     CLOUDY    63  63  99 W6        29.68R
HUTCHINSON     CLEAR     61  59  92 W10G17    29.70R
$$
MNZ037-044-045-052-053-201400-
   East Central Minnesota

CITY           SKY/WX    TMP DP  RH WIND       PRES   REMARKS
PRINCETON      PTCLDY    66  64  94 SW9       29.66R
MORA           CLOUDY    64  64 100 S3        29.64S
CAMBRIDGE      MOCLDY    72  66  83 S8        29.63R
RUSH CITY      CLOUDY    68  65  91 S6        29.63S
MOOSE LAKE     CLOUDY    64  61  88 S3        29.61S
HINCKLEY       CLOUDY    64  64 100 CALM      29.62F
CLOQUET        LGT RAIN  61  59  94 E10       29.65R
MCGREGOR       CLOUDY    63  61  94 SE5       29.62S
$$
MNZ071>073-080-081-089-090-097-098-201400-
   Southwest Minnesota

CITY           SKY/WX    TMP DP  RH WIND       PRES   REMARKS
MONTEVIDEO     MOCLDY    59  57  94 NW8       29.71S
GRANITE FALLS  CLEAR     58  56  95 W8        29.73R
CANBY          CLOUDY    57  52  84 NW14      29.75R
MARSHALL       CLEAR     56  54  93 W8        29.74R
REDWOOD FALLS  CLEAR     59  55  87 W10       29.71R
OLIVIA         CLEAR     55  54  94 W8        29.70R
PIPESTONE      CLEAR     54  52  94 NW9       29.77R
WINDOM         CLEAR     57  54  88 W8        29.73R
WORTHINGTON    CLEAR     57  53  86 W10       29.76R
JACKSON        CLEAR     57  54  88 W10       29.74R
TRACY          CLEAR     57  56  95 W3        29.73R
SLAYTON        CLEAR     55  53  91 W10       29.74S
$$
MNZ065>067-074>077-082>085-091>093-201400-
   South Central Minnesota

CITY           SKY/WX    TMP DP  RH WIND       PRES   REMARKS
MANKATO        PTCLDY    64  61  90 W10       29.70R
NEW ULM        CLEAR     61  55  82 W12       29.71R
ST JAMES       CLEAR     61  55  82 W8        29.73R
FAIRMONT       CLEAR     62  58  86 W9        29.72R
GLENCOE        CLEAR     63  62  97 W10       29.69R
FARIBAULT      CLOUDY    70  66  88 S6        29.69R
OWATONNA       SUNNY     68  64  88 S6        29.69R
WASECA         SUNNY     63  61  94 CALM      29.71R
ALBERT LEA     CLOUDY    72  70  94 S8        29.69S
$$
MNZ078>079-086>088-094>096-201400-
   Southeast Minnesota

CITY           SKY/WX    TMP DP  RH WIND       PRES   REMARKS
ROCHESTER      PTSUNNY   69  65  86 S14       29.71R
RED WING       CLOUDY    73  63  68 SE9       29.65F
STANTON        PTSUNNY   71  65  83 S10       29.64S
DODGE CENTER   MOSUNNY   70  64  83 S13G20    29.70S
WINONA         SUNNY     72  63  73 SE6       29.72S
AUSTIN         CLOUDY    70  64  83 S9        29.71R
PRESTON        CLOUDY    69  64  82 S9G16     29.74R
$$
ABBREVIATIONS USED IN REMARKS
   TC - TEMPERATURES IN CELSIUS
  WCI - WIND CHILL INDEX
   HX - HEAT INDEX
  VSB - VISIBILITY
$$




USA.gov is the U.S. government's official web portal to all federal, state and local government web resources and services.